Weather History for Omaha, NE

Change the Weather History Date:

Wednesday, December 19, 2012

  Actual Average Record
Temperature  
Mean Temperature 32 °F 25 °F  
Max Temperature 38 °F 34 °F 60 °F (1966)
Min Temperature 26 °F 16 °F -16 °F (1983)
Degree Days  
Heating Degree Days 33 40  
Month to date heating degree days 533 717  
Since 1 July heating degree days 1707 1987  
Cooling Degree Days 0 0  
Month to date cooling degree days 0 0  
Year to date cooling degree days 1649 1113  
Moisture  
Dew Point 29 °F    
Average Humidity 84    
Maximum Humidity 92    
Minimum Humidity 76    
Precipitation  
Precipitation 0.81 in 0.04 in 0.81 in (2012)
Month to date precipitation 1.51 0.71  
Year to date precipitation 22.27 30.29  
Snow  
Snow 3.10 in 0.20 in - ()
Month to date snowfall 3.7 3.8  
Since 1 July snowfall 3.7 6.6  
Snow Depth 0.00 in    
Sea Level Pressure  
Sea Level Pressure 29.83 in    
Wind  
Wind Speed 10 mph (NNE)    
Max Wind Speed 35 mph    
Max Gust Speed 41 mph    
Visibility 3 miles    
Events Fog , Rain , Snow    
T = Trace of Precipitation, MM = Missing Value Source: NWS Daily Summary

Daily Weather History Graph

Daily Weather History Graph

Search for Another Location

Airport:

Trip Planner

Search our weather history database for the weather conditions in past years. The results will help you decide how hot, cold, wet, or windy it might be!

Date:

Astronomy

Dec. 19, 2012 Rise Set
Actual Time 7:45 AM CST 4:56 PM CST
Civil Twilight 7:13 AM CST 5:28 PM CST
Nautical Twilight 6:39 AM CST 6:03 PM CST
Astronomical Twilight 6:05 AM CST 6:36 PM CST
Moon 11:50 AM CST (12/19) No Moon Set
Length of Visible Light 10h 14m
Length of Day
9h 11m
Waxing Crescent, 45% of the Moon is Illuminated
Dec 19
Waxing Crescent
Dec 19
First Quarter
Dec 28
Full
Jan 4
Last Quarter
Jan 11
New

Hourly Weather History & Observations

Time (CST) Temp. Windchill Dew Point Humidity Pressure Visibility Wind Dir Wind Speed Gust Speed Precip Events Conditions
12:52 AM 30.0 °F - 27.0 °F 88% 29.90 in 6.0 mi Calm Calm - N/A   Mostly Cloudy
1:52 AM 30.0 °F - 27.0 °F 88% 29.92 in 5.0 mi Calm Calm - N/A   Mostly Cloudy
2:52 AM 30.0 °F 26.5 °F 27.0 °F 88% 29.95 in 6.0 mi East 3.5 mph - N/A   Overcast
3:52 AM 28.0 °F 24.2 °F 26.1 °F 92% 29.92 in 5.0 mi NNW 3.5 mph - N/A   Overcast
4:52 AM 28.9 °F - 26.1 °F 89% 29.91 in 6.0 mi Calm Calm - N/A   Overcast
5:52 AM 27.0 °F 20.5 °F 24.1 °F 89% 29.92 in 5.0 mi NNW 5.8 mph - N/A   Overcast
6:52 AM 27.0 °F 23.0 °F 25.0 °F 92% 29.93 in 5.0 mi NNW 3.5 mph - N/A   Mostly Cloudy
7:52 AM 30.9 °F - 28.0 °F 89% 29.94 in 5.0 mi Calm Calm - N/A   Overcast
8:52 AM 30.9 °F - 28.0 °F 89% 29.94 in 5.0 mi Calm Calm - N/A   Overcast
9:52 AM 33.1 °F 28.7 °F 28.9 °F 85% 29.94 in 5.0 mi East 4.6 mph - N/A   Mostly Cloudy
10:52 AM 35.1 °F 30.1 °F 30.9 °F 85% 29.93 in 6.0 mi East 5.8 mph - N/A   Mostly Cloudy
11:52 AM 36.0 °F 33.3 °F 30.0 °F 79% 29.90 in 6.0 mi East 3.5 mph - N/A   Haze
12:52 PM 37.0 °F 32.4 °F 30.9 °F 79% 29.86 in 7.0 mi ENE 5.8 mph - N/A   Overcast
1:52 PM 37.0 °F 29.3 °F 30.9 °F 79% 29.83 in 8.0 mi East 11.5 mph 16.1 mph 0.00 in   Overcast
2:30 PM 35.6 °F 27.5 °F 32.0 °F 87% 29.78 in 4.0 mi NE 11.5 mph - 0.02 in Rain Light Rain
2:52 PM 36.0 °F 27.5 °F 32.0 °F 86% 29.81 in 4.0 mi NNE 12.7 mph - 0.06 in Rain Rain
3:24 PM 33.8 °F 25.8 °F 32.0 °F 93% 29.78 in 1.5 mi NNE 10.4 mph - 0.05 in Rain Rain
3:35 PM 33.8 °F 24.8 °F 30.2 °F 87% 29.78 in 0.8 mi NNE 12.7 mph - 0.08 in Snow Light Snow
3:47 PM 33.8 °F 25.8 °F 30.2 °F 87% 29.78 in 1.0 mi NNE 10.4 mph - 0.14 in Rain , Snow Light Rain
3:52 PM 33.1 °F 23.4 °F 30.9 °F 92% 29.82 in 1.5 mi NNE 13.8 mph - 0.15 in Rain , Snow Light Rain
4:25 PM 33.8 °F 24.3 °F 30.2 °F 87% 29.79 in 1.0 mi NNE 13.8 mph - 0.12 in Rain , Snow Light Rain
4:52 PM 33.1 °F 22.6 °F 30.9 °F 92% 29.81 in 1.0 mi NNE 16.1 mph - 0.18 in Rain , Snow Light Rain
5:07 PM 33.8 °F 23.5 °F 30.2 °F 87% 29.77 in 1.2 mi NNE 16.1 mph - 0.03 in Rain , Snow Light Rain
5:52 PM 34.0 °F 23.8 °F 32.0 °F 92% 29.79 in 1.8 mi NNE 16.1 mph 25.3 mph 0.10 in Snow Light Snow
6:14 PM 33.8 °F 23.2 °F 30.2 °F 87% 29.75 in 0.8 mi NNE 17.3 mph - 0.04 in Snow Light Snow
6:52 PM 33.1 °F 21.9 °F 30.9 °F 92% 29.80 in 0.8 mi North 18.4 mph 29.9 mph 0.09 in Snow Light Snow
7:28 PM 33.8 °F 22.8 °F 30.2 °F 87% 29.78 in 0.2 mi North 18.4 mph 25.3 mph 0.04 in Fog , Snow Heavy Snow
7:52 PM 32.0 °F 20.8 °F 30.9 °F 96% 29.80 in 0.2 mi North 17.3 mph - 0.13 in Fog , Snow Heavy Snow
7:59 PM 33.8 °F 22.8 °F 30.2 °F 87% 29.77 in 0.5 mi North 18.4 mph - 0.01 in Fog , Snow Snow
8:36 PM 33.8 °F 21.9 °F 30.2 °F 87% 29.77 in 1.0 mi NNE 21.9 mph - 0.03 in Snow Light Snow
8:52 PM 33.1 °F 22.2 °F 30.9 °F 92% 29.80 in 1.0 mi NNE 17.3 mph 27.6 mph 0.05 in Snow Light Snow
8:59 PM 33.8 °F 21.6 °F 30.2 °F 87% 29.76 in 0.8 mi North 23.0 mph 32.2 mph 0.00 in Snow Light Snow
9:43 PM 33.8 °F 21.0 °F 30.2 °F 87% 29.76 in 1.0 mi North 25.3 mph 31.1 mph 0.03 in Snow Light Snow
9:52 PM 33.1 °F 20.9 °F 30.9 °F 92% 29.79 in 1.0 mi North 21.9 mph - 0.03 in Snow Light Snow
10:02 PM 33.8 °F 20.8 °F 30.2 °F 87% 29.76 in 0.8 mi North 26.5 mph 32.2 mph 0.01 in Snow Light Snow
10:52 PM 32.0 °F 17.2 °F 30.0 °F 92% 29.79 in 0.5 mi North 32.2 mph 41.4 mph 0.02 in Snow Snow
11:35 PM 30.2 °F 15.2 °F 28.4 °F 93% 29.77 in 0.8 mi North 29.9 mph 38.0 mph 0.00 in Snow Light Snow
11:40 PM 30.2 °F 15.7 °F 28.4 °F 93% 29.77 in 0.8 mi North 27.6 mph 36.8 mph 0.00 in Snow Light Snow
11:48 PM 30.2 °F 15.4 °F 28.4 °F 93% 29.76 in 0.8 mi North 28.8 mph 38.0 mph 0.00 in Snow Light Snow
11:50 PM 30.2 °F 14.9 °F 28.4 °F 93% 29.76 in 0.8 mi North 31.1 mph 38.0 mph 0.00 in Snow Light Snow
11:52 PM 30.9 °F 16.2 °F 28.0 °F 89% 29.79 in 0.8 mi North 29.9 mph 38.0 mph 0.00 in Snow Light Snow